sat.trackr.live / text

‹ back to catalog

2025-155N

NORAD 64888 · 2025-155N

PAYLOAD ACTIVE UNKNOWN

§ Identity

Operator
Country
TBD
Launch date
2025-07-25
Launch site
VOSTO
Launch vehicle
Mass (kg)
RCS (m²)

External: N2YO · Heavens-Above · Gunter

§ Orbital elements

Epoch: 2026-05-25T04:28:28.135200Z

Period
93.49 min
Inclination
97.4460°
Eccentricity
0.0004254
Mean motion
15.40190544 rev/d
Perigee alt
442.6 km
Apogee alt
448.4 km
Semi-major
6,823.7 km
B*
7.6426e-4
RAAN
115.7074°
Arg perigee
218.1633°
Mean anomaly
141.9312°
Rev number
7,739

§ Raw data

2025-155N1 64888U 25155N   26145.18643675  .00030690  00000+0  76426-3 0  99952 64888  97.4460 115.7074 0004254 218.1633 141.9312 15.40190544 77390

JSON: /api/v1/satellites/64888 · /tle

For live sub-satellite position, see the globe view (requires WebGL).

§ Visibility from observer

Set your observer location to see the next 7 days of passes ≥ 10°. The values pass through the URL so the page stays shareable.

No JS? Fill the form by hand. The geolocation button needs JavaScript.